This is the latest recevied weather packets stored in our database for station/object N2OCK. If no packets are shown the sender has not sent any weather packets the latest 10 day(s).
| Time | Temp. | Humidity | Pressure | Rain* | Wind** | Luminosity | Snow |
|---|---|---|---|---|---|---|---|
| 1777458475 | 8.33° C | 91% | 1017.1 hPa | 0 mm | - | 30 W/m² | - |
| 1777458172 | 8.33° C | 91% | 1017.1 hPa | 0 mm | - | 25 W/m² | - |
| 1777457866 | 8.33° C | 91% | 1017.1 hPa | 0 mm | - | 19 W/m² | - |
| 1777457562 | 8.33° C | 91% | 1016.9 hPa | 0 mm | - | 15 W/m² | - |
| 1777457258 | 8.33° C | 91% | 1017 hPa | 0 mm | - | 9 W/m² | - |
| 1777456954 | 8.33° C | 91% | 1017.2 hPa | 0 mm | - | 6 W/m² | - |
| 1777456649 | 7.78° C | 92% | 1017.4 hPa | 0 mm | - | 3 W/m² | - |
| 1777456344 | 7.78° C | 91% | 1017.8 hPa | 0 mm | - | 2 W/m² | - |
| 1777456041 | 7.78° C | 91% | 1017.6 hPa | 0 mm | - | 1 W/m² | - |
| 1777455737 | 7.78° C | 91% | 1017.5 hPa | 0 mm | - | 0 W/m² | - |
| 1777455434 | 7.78° C | 92% | 1017.4 hPa | 0 mm | - | 0 W/m² | - |
| 1777455130 | 7.78° C | 92% | 1017.5 hPa | 0 mm | - | 0 W/m² | - |
| 1777454828 | 7.78° C | 92% | 1017.5 hPa | 0 mm | - | 0 W/m² | - |
| 1777454523 | 7.78° C | 92% | 1017.5 hPa | 0 mm | - | 0 W/m² | - |
| 1777454220 | 7.78° C | 92% | 1017.3 hPa | 0 mm | - | 0 W/m² | - |
| 1777453917 | 7.78° C | 92% | 1017.3 hPa | 0 mm | - | 0 W/m² | - |
| 1777453614 | 7.22° C | 92% | 1017.1 hPa | 0 mm | - | 0 W/m² | - |
| 1777453310 | 7.22° C | 91% | 1017 hPa | 0 mm | - | 0 W/m² | - |
| 1777453008 | 7.78° C | 91% | 1017 hPa | 0 mm | - | 0 W/m² | - |
| 1777452705 | 7.78° C | 91% | 1016.9 hPa | 0 mm | - | 0 W/m² | - |
| 1777452401 | 7.78° C | 92% | 1016.9 hPa | 0 mm | - | 0 W/m² | - |
| 1777452097 | 7.22° C | 92% | 1017 hPa | 0 mm | - | 0 W/m² | - |
| 1777451792 | 7.22° C | 92% | 1017.1 hPa | 0 mm | - | 0 W/m² | - |
| 1777451488 | 7.22° C | 91% | 1017 hPa | 0 mm | - | 0 W/m² | - |
| 1777451184 | 7.22° C | 91% | 1016.9 hPa | 0 mm | - | 0 W/m² | - |
* Rain latest hour (hover to see other rain measurements)
** Current wind speed in m/s (hover to see current wind gust speed)